Danbury, CT

12:11 PM EST on December 13, 2017 (GMT -0500)
Danbury Municipal

Weather History for KDXR - December, 2012

Change the Weather History Date:

Thursday, December 27, 2012

  Actual Average Record
Temperature  
Mean Temperature 34 °F -  
Max Temperature 37 °F 34 °F 60 °F (1973)
Min Temperature 28 °F 18 °F -8 °F (1948)
Degree Days  
Heating Degree Days 32    
Moisture  
Dew Point 31 °F    
Average Humidity 86    
Maximum Humidity 93    
Minimum Humidity 66    
Precipitation  
Precipitation 0.38 in - - ()
Sea Level Pressure  
Sea Level Pressure 29.50 in    
Wind  
Wind Speed 14 mph (North)    
Max Wind Speed 20 mph    
Max Gust Speed 30 mph    
Visibility 5 miles    
Events Rain    
Averages and records for this station are not official NWS values.
T = Trace of Precipitation, MM = Missing Value Source: NWS Daily Summary

Daily Weather History Graph

Daily Weather History Graph

Search for Another Location

Airport or City:

Trip Planner

Search our weather history database for the weather conditions in past years. The results will help you decide how hot, cold, wet, or windy it might be!

Date:

Astronomy

Dec. 27, 2012 Rise Set
Actual Time 7:19 AM EST 4:31 PM EST
Civil Twilight 6:47 AM EST 5:02 PM EST
Nautical Twilight 6:12 AM EST 5:37 PM EST
Astronomical Twilight 5:39 AM EST 6:11 PM EST
Moon 4:12 PM EST (12/27) 6:27 AM EST (12/27)
Length of Visible Light 10h 15m
Length of Day
9h 12m
Full, 100% of the Moon is Illuminated
Dec 27
Full
Dec 28
Full
Jan 4
Last Quarter
Jan 11
New
Jan 18
First Quarter

Hourly Weather History & Observations

Time (EST) Temp. Windchill Dew Point Humidity Pressure Visibility Wind Dir Wind Speed Gust Speed Precip Events Conditions
12:53 AM 36.0 °F 26.0 °F 33.1 °F 89% 29.55 in 4.0 mi ENE 17.3 mph 27.6 mph 0.03 in Rain Light Rain
1:06 AM 35.6 °F 25.5 °F 33.8 °F 93% 29.52 in 2.5 mi ENE 17.3 mph 24.2 mph 0.01 in Rain Rain
1:15 AM 35.6 °F 26.2 °F 33.8 °F 93% 29.52 in 3.0 mi NE 15.0 mph 26.5 mph 0.02 in Rain Light Rain
1:26 AM 35.6 °F 24.8 °F 33.8 °F 93% 29.52 in 2.5 mi NE 19.6 mph 26.5 mph 0.05 in Rain Rain
1:33 AM 35.6 °F 27.1 °F 33.8 °F 93% 29.51 in 4.0 mi ENE 12.7 mph 26.5 mph 0.06 in Rain Light Rain
1:53 AM 36.0 °F 27.1 °F 33.1 °F 89% 29.52 in 2.5 mi ENE 13.8 mph 25.3 mph 0.09 in Rain Rain
2:15 AM 35.6 °F 26.6 °F 33.8 °F 93% 29.50 in 3.0 mi ENE 13.8 mph 23.0 mph 0.04 in Rain Light Rain
2:27 AM 35.6 °F 25.5 °F 33.8 °F 93% 29.49 in 2.5 mi ENE 17.3 mph 26.5 mph 0.07 in Rain Rain
2:35 AM 35.6 °F 26.2 °F 33.8 °F 93% 29.49 in 3.0 mi ENE 15.0 mph 29.9 mph 0.08 in Rain Light Rain
2:53 AM 36.0 °F 26.7 °F 34.0 °F 93% 29.48 in 3.0 mi NE 15.0 mph 24.2 mph 0.09 in Rain Light Rain
3:01 AM 35.6 °F 25.5 °F 33.8 °F 93% 29.46 in 2.5 mi ENE 17.3 mph 24.2 mph 0.01 in Rain Light Rain
3:34 AM 35.6 °F 26.6 °F 33.8 °F 93% 29.44 in 3.0 mi NE 13.8 mph 21.9 mph 0.03 in Rain Light Rain
3:53 AM 36.0 °F 28.0 °F 34.0 °F 93% 29.44 in 3.0 mi NE 11.5 mph - 0.06 in Rain Heavy Rain
4:53 AM 36.0 °F 27.5 °F 34.0 °F 93% 29.41 in 5.0 mi NE 12.7 mph 24.2 mph 0.03 in Rain Rain
5:53 AM 37.0 °F 29.3 °F 34.0 °F 89% 29.35 in 10.0 mi NE 11.5 mph 25.3 mph 0.02 in   Overcast
6:53 AM 37.9 °F 30.9 °F 35.1 °F 89% 29.34 in 5.0 mi NNE 10.4 mph 20.7 mph 0.03 in Rain Light Rain
7:19 AM 37.4 °F 28.9 °F 35.6 °F 93% 29.32 in 4.0 mi NNE 13.8 mph 21.9 mph 0.01 in Rain Light Rain
8:53 AM 37.0 °F 29.8 °F 34.0 °F 89% 29.34 in 6.0 mi North 10.4 mph - 0.03 in Rain Light Rain
9:53 AM 37.9 °F 32.7 °F 34.0 °F 86% 29.38 in 5.0 mi North 6.9 mph - 0.00 in Rain Light Rain
10:38 AM 35.6 °F 28.6 °F 33.8 °F 93% 29.39 in 3.0 mi NW 9.2 mph 17.3 mph 0.00 in   Overcast
10:53 AM 34.0 °F 26.6 °F 32.0 °F 92% 29.40 in 3.0 mi WNW 9.2 mph 23.0 mph 0.00 in Rain Light Freezing Rain
11:53 AM 32.0 °F 22.1 °F 28.9 °F 88% 29.42 in 3.0 mi NW 13.8 mph 21.9 mph 0.00 in Rain Light Freezing Rain
11:55 AM 32.0 °F 22.1 °F 28.4 °F 87% 29.42 in 3.0 mi NW 13.8 mph 24.2 mph 0.00 in   Overcast
12:49 PM 33.8 °F 23.2 °F 28.4 °F 81% 29.43 in 2.5 mi NW 17.3 mph 25.3 mph 0.00 in   Overcast
12:53 PM 33.1 °F 22.2 °F 28.9 °F 85% 29.44 in 2.5 mi NW 17.3 mph 27.6 mph 0.00 in   Overcast
1:53 PM 33.1 °F 24.9 °F 28.9 °F 85% 29.46 in 2.5 mi NNW 10.4 mph 21.9 mph 0.00 in   Overcast
2:00 PM 33.8 °F 25.3 °F 28.4 °F 81% 29.45 in 9.0 mi NNW 11.5 mph 18.4 mph N/A   Overcast
2:18 PM 33.8 °F 25.3 °F 28.4 °F 81% 29.46 in 10.0 mi NNW 11.5 mph 20.7 mph N/A   Overcast
2:53 PM 34.0 °F 24.2 °F 28.0 °F 79% 29.50 in 9.0 mi NW 15.0 mph 28.8 mph N/A   Overcast
4:24 PM 33.8 °F 23.9 °F 28.4 °F 81% 29.53 in 10.0 mi NW 15.0 mph 21.9 mph N/A   Overcast
4:53 PM 34.0 °F 25.0 °F 28.0 °F 79% 29.56 in 10.0 mi NNW 12.7 mph 23.0 mph N/A   Overcast
5:53 PM 34.0 °F 26.6 °F 28.0 °F 79% 29.60 in 10.0 mi NW 9.2 mph 24.2 mph 0.00 in   Overcast
7:53 PM 32.0 °F 23.6 °F 26.1 °F 79% 29.68 in 10.0 mi WNW 10.4 mph 20.7 mph N/A   Overcast
8:53 PM 30.9 °F 21.7 °F 23.0 °F 72% 29.71 in 10.0 mi WNW 11.5 mph 19.6 mph N/A   Overcast
9:53 PM 30.9 °F 22.8 °F 21.9 °F 69% 29.74 in 10.0 mi WNW 9.2 mph 20.7 mph N/A   Overcast
10:53 PM 30.0 °F 20.5 °F 19.9 °F 66% 29.78 in 10.0 mi WNW 11.5 mph 19.6 mph N/A   Overcast
11:53 PM 28.9 °F 19.8 °F 19.9 °F 69% 29.79 in 10.0 mi WNW 10.4 mph 17.3 mph N/A   Overcast